カタログに戻る

TITAN 3C TRANSTAGE DEB

LostHEO
NORAD 40551·DEBRIS·🇺🇸 United States

打ち上げ Dec 21, 1965 から Cape Canaveral Space Force Station

Loading…

次のパス (今後24時間)

TLE

古いSource: Space-Track

元期: Sep 12, 2025, 05:57 UTC

1 40551U 65108DR  25255.24810346  .00000053  00000-0  17301-2 0  9994
2 40551  26.3678 174.2868 6826893 208.8141  84.6448  2.63623077159860

AllMySatでTITAN 3C TRANSTAGE DEBをリアルタイム追跡

Download on the App Store